Data,Hora,Valor
2021-04-01,09:00,0.9
2021-04-01,09:30,0.89
2021-04-01,10:00,0.89
2021-04-01,10:30,0.89
2021-04-01,11:00,0.9
2021-04-01,11:30,0.9
2021-04-01,12:00,0.91
2021-04-01,12:30,0.9
2021-04-01,13:00,0.9
2021-04-01,13:30,0.9
2021-04-01,14:00,0.89
2021-04-01,14:30,0.89
2021-04-01,15:00,0.89
2021-04-01,15:30,0.89
2021-04-01,16:00,0.9
2021-04-01,16:30,0.9
2021-04-01,17:00,0.9
2021-04-01,17:30,0.9
2021-04-01,18:00,0.91
2021-04-01,18:30,0.92
2021-04-01,19:00,0.92
2021-04-01,19:30,0.93
2021-04-01,20:00,0.93
2021-04-01,20:30,0.94
2021-04-01,21:00,0.94
2021-04-01,21:30,0.95
2021-04-01,22:00,0.96
2021-04-01,22:30,0.96
2021-04-01,23:00,0.97
2021-04-01,23:30,0.97
2021-04-02,01:00,0.96
2021-04-02,01:30,0.96
2021-04-02,02:00,0.95
2021-04-02,02:30,0.95
2021-04-02,03:00,0.95
2021-04-02,03:30,0.95
2021-04-02,04:00,0.95
2021-04-02,04:30,0.95
2021-04-02,05:00,0.95
2021-04-02,05:30,0.95
2021-04-02,06:00,0.96
2021-04-02,06:30,0.96
2021-04-02,07:00,0.97
2021-04-02,07:30,0.97
2021-04-02,08:00,0.97
2021-04-02,08:30,0.97
2021-04-02,09:00,0.96
2021-04-02,09:30,0.97
2021-04-02,10:00,0.97
2021-04-02,10:30,0.97
2021-04-02,11:00,0.97
2021-04-02,11:30,0.97
2021-04-02,12:00,0.97
2021-04-02,12:30,0.96
2021-04-02,13:00,0.96
2021-04-02,13:30,0.97
2021-04-02,14:00,0.97
2021-04-02,14:30,0.97
2021-04-02,15:00,0.98
2021-04-02,15:30,0.97
2021-04-02,16:00,0.97
2021-04-02,16:30,0.96
2021-04-02,17:00,0.96
2021-04-02,17:30,0.96
2021-04-02,18:00,0.97
2021-04-02,18:30,0.98
2021-04-02,19:00,0.98
2021-04-02,19:30,0.99
2021-04-02,20:00,0.99
2021-04-02,20:30,0.99
2021-04-02,21:00,0.99
2021-04-02,21:30,0.99
2021-04-02,22:00,0.99
2021-04-02,22:30,0.99
2021-04-02,23:00,0.98
2021-04-02,23:30,0.98
2021-04-03,01:00,0.96
2021-04-03,01:30,0.96
2021-04-03,02:00,0.96
2021-04-03,02:30,0.96
2021-04-03,03:00,0.97
2021-04-03,03:30,0.96
2021-04-03,04:00,0.96
2021-04-03,04:30,0.95
2021-04-03,05:00,0.95
2021-04-03,05:30,0.96
2021-04-03,06:00,0.98
2021-04-03,06:30,0.99
2021-04-03,07:00,1.01
2021-04-03,07:30,1.02
2021-04-03,08:00,1.02
2021-04-03,08:30,1.02
2021-04-03,09:00,1.01
2021-04-03,09:30,1.0
2021-04-03,10:00,0.99
2021-04-03,10:30,0.98
2021-04-03,11:00,0.97
2021-04-03,11:30,0.95
2021-04-03,12:00,0.94
2021-04-03,12:30,0.93
2021-04-03,13:00,0.92
2021-04-03,13:30,0.91
2021-04-03,14:00,0.9
2021-04-03,14:30,0.9
2021-04-03,15:00,0.89
2021-04-03,15:30,0.89
2021-04-03,16:00,0.88
2021-04-03,16:30,0.88
2021-04-03,17:00,0.88
2021-04-03,17:30,0.88
2021-04-03,18:00,0.88
2021-04-03,18:30,0.89
2021-04-03,19:00,0.91
2021-04-03,19:30,0.92
2021-04-03,20:00,0.93
2021-04-03,20:30,0.94
2021-04-03,21:00,0.95
2021-04-03,21:30,0.95
2021-04-03,22:00,0.95
2021-04-03,22:30,0.95
2021-04-03,23:00,0.95
2021-04-03,23:30,0.95
2021-04-04,01:00,0.93
2021-04-04,01:30,0.93
2021-04-04,02:00,0.92
2021-04-04,02:30,0.92
2021-04-04,03:00,0.92
2021-04-04,03:30,0.92
2021-04-04,04:00,0.92
2021-04-04,04:30,0.92
2021-04-04,05:00,0.92
2021-04-04,05:30,0.92
2021-04-04,06:00,0.91
2021-04-04,06:30,0.92
2021-04-04,07:00,0.92
2021-04-04,07:30,0.92
2021-04-04,08:00,0.93
2021-04-04,08:30,0.93
2021-04-04,09:00,0.92
2021-04-04,09:30,0.92
2021-04-04,10:00,0.91
2021-04-04,10:30,0.91
2021-04-04,11:00,0.91
2021-04-04,11:30,0.91
2021-04-04,12:00,0.91
2021-04-04,12:30,0.91
2021-04-04,13:00,0.91
2021-04-04,13:30,0.9
2021-04-04,14:00,0.9
2021-04-04,14:30,0.89
2021-04-04,15:00,0.89
2021-04-04,15:30,0.88
2021-04-04,16:00,0.88
2021-04-04,16:30,0.88
2021-04-04,17:00,0.88
2021-04-04,17:30,0.87
2021-04-04,18:00,0.88
2021-04-04,18:30,0.89
2021-04-04,19:00,0.9
2021-04-04,19:30,0.91
2021-04-04,20:00,0.92
2021-04-04,20:30,0.93
2021-04-04,21:00,0.93
2021-04-04,21:30,0.93
2021-04-04,22:00,0.93
2021-04-04,22:30,0.92
2021-04-04,23:00,0.92
2021-04-04,23:30,0.92
2021-04-05,01:00,0.91
2021-04-05,01:30,0.9
2021-04-05,02:00,0.89
2021-04-05,02:30,0.89
2021-04-05,03:00,0.89
2021-04-05,03:30,0.89
2021-04-05,04:00,0.89
2021-04-05,04:30,0.89
2021-04-05,05:00,0.89
2021-04-05,05:30,0.89
2021-04-05,06:00,0.88
2021-04-05,06:30,0.88
2021-04-05,07:00,0.88
2021-04-05,07:30,0.89
2021-04-05,08:00,0.89
2021-04-05,08:30,0.89
2021-04-05,09:00,0.89
2021-04-05,09:30,0.88
2021-04-05,10:00,0.88
2021-04-05,10:30,0.88
2021-04-05,11:00,0.88
2021-04-05,11:30,0.88
2021-04-05,12:00,0.88
2021-04-05,12:30,0.88
2021-04-05,13:00,0.88
2021-04-05,13:30,0.88
2021-04-05,14:00,0.87
2021-04-05,14:30,0.87
2021-04-05,15:00,0.87
2021-04-05,15:30,0.87
2021-04-05,16:00,0.87
2021-04-05,16:30,0.87
2021-04-05,17:00,0.87
2021-04-05,17:30,0.87
2021-04-05,18:00,0.86
2021-04-05,18:30,0.87
2021-04-05,19:00,0.87
2021-04-05,19:30,0.88
2021-04-05,20:00,0.88
2021-04-05,20:30,0.88
2021-04-05,21:00,0.88
2021-04-05,21:30,0.88
2021-04-05,22:00,0.87
2021-04-05,22:30,0.87
2021-04-05,23:00,0.87
2021-04-05,23:30,0.87
2021-04-06,01:00,0.87
2021-04-06,01:30,0.87
2021-04-06,02:00,0.87
2021-04-06,02:30,0.87
2021-04-06,03:00,0.87
2021-04-06,03:30,0.87
2021-04-06,04:00,0.88
2021-04-06,04:30,0.88
2021-04-06,05:00,0.89
2021-04-06,05:30,0.89
2021-04-06,06:00,0.89
2021-04-06,06:30,0.89
2021-04-06,07:00,0.89
2021-04-06,07:30,0.89
2021-04-06,08:00,0.89
2021-04-06,08:30,0.88
2021-04-06,09:00,0.88
2021-04-06,09:30,0.88
2021-04-06,10:00,0.87
2021-04-06,10:30,0.87
2021-04-06,11:00,0.87
2021-04-06,11:30,0.87
2021-04-06,12:00,0.87
2021-04-06,12:30,0.87
2021-04-06,13:00,0.87
2021-04-06,13:30,0.87
2021-04-06,14:00,0.86
2021-04-06,14:30,0.86
2021-04-06,15:00,0.86
2021-04-06,15:30,0.86
2021-04-06,16:00,0.87
2021-04-06,16:30,0.87
2021-04-06,17:00,0.87
2021-04-06,17:30,0.86
2021-04-06,18:00,0.86
2021-04-06,18:30,0.86
2021-04-06,19:00,0.86
2021-04-06,19:30,0.86
2021-04-06,20:00,0.86
2021-04-06,20:30,0.86
2021-04-06,21:00,0.86
2021-04-06,21:30,0.86
2021-04-06,22:00,0.86
2021-04-06,22:30,0.85
2021-04-06,23:00,0.85
2021-04-06,23:30,0.86
2021-04-07,01:00,0.87
2021-04-07,01:30,0.87
2021-04-07,02:00,0.88
2021-04-07,02:30,0.88
2021-04-07,03:00,0.88
2021-04-07,03:30,0.88
2021-04-07,04:00,0.89
2021-04-07,04:30,0.89
2021-04-07,05:00,0.88
2021-04-07,05:30,0.88
2021-04-07,06:00,0.87
2021-04-07,06:30,0.87
2021-04-07,07:00,0.87
2021-04-07,07:30,0.86
2021-04-07,08:00,0.87
2021-04-07,08:30,0.86
2021-04-07,09:00,0.86
2021-04-07,09:30,0.86
2021-04-07,10:00,0.86
2021-04-07,10:30,0.85
2021-04-07,11:00,0.85
2021-04-07,11:30,0.85
2021-04-07,12:00,0.85
2021-04-07,12:30,0.85
2021-04-07,13:00,0.85
2021-04-07,13:30,0.85
2021-04-07,14:00,0.85
2021-04-07,14:30,0.85
2021-04-07,15:00,0.84
2021-04-07,15:30,0.85
2021-04-07,16:00,0.85
2021-04-07,16:30,0.85
2021-04-07,17:00,0.85
2021-04-07,17:30,0.85
2021-04-07,18:00,0.85
2021-04-07,18:30,0.84
2021-04-07,19:00,0.84
2021-04-07,19:30,0.85
2021-04-07,20:00,0.85
2021-04-07,20:30,0.85
2021-04-07,21:00,0.85
2021-04-07,21:30,0.85
2021-04-07,22:00,0.84
2021-04-07,22:30,0.84
2021-04-07,23:00,0.84
2021-04-07,23:30,0.84
2021-04-08,01:00,0.86
2021-04-08,01:30,0.87
2021-04-08,02:00,0.87
2021-04-08,02:30,0.87
2021-04-08,03:00,0.86
2021-04-08,03:30,0.87
2021-04-08,04:00,0.86
2021-04-08,04:30,0.87
2021-04-08,05:00,0.86
2021-04-08,05:30,0.86
2021-04-08,06:00,0.86
2021-04-08,06:30,0.85
2021-04-08,07:00,0.85
2021-04-08,07:30,0.84
2021-04-08,08:00,0.84
2021-04-08,08:30,0.84
2021-04-08,09:00,0.84
2021-04-08,09:30,0.84
2021-04-08,10:00,0.84
2021-04-08,10:30,0.84
2021-04-08,11:00,0.84
2021-04-08,11:30,0.84
2021-04-08,12:00,0.84
2021-04-08,12:30,0.84
2021-04-08,13:00,0.84
2021-04-08,13:30,0.84
2021-04-08,14:00,0.84
2021-04-08,14:30,0.84
2021-04-08,15:00,0.84
2021-04-08,15:30,0.84
2021-04-08,16:00,0.84
2021-04-08,16:30,0.84
2021-04-08,17:00,0.84
2021-04-08,17:30,0.84
2021-04-08,18:00,0.84
2021-04-08,18:30,0.83
2021-04-08,19:00,0.83
2021-04-08,19:30,0.83
2021-04-08,20:00,0.84
2021-04-08,20:30,0.84
2021-04-08,21:00,0.84
2021-04-08,21:30,0.84
2021-04-08,22:00,0.84
2021-04-08,22:30,0.84
2021-04-08,23:00,0.83
2021-04-08,23:30,0.83
2021-04-09,01:00,0.84
2021-04-09,01:30,0.84
2021-04-09,02:00,0.83
2021-04-09,02:30,0.83
2021-04-09,03:00,0.83
2021-04-09,03:30,0.83
2021-04-09,04:00,0.84
2021-04-09,04:30,0.84
2021-04-09,05:00,0.85
2021-04-09,05:30,0.86
2021-04-09,06:00,0.86
2021-04-09,06:30,0.86
2021-04-09,07:00,0.86
2021-04-09,07:30,0.86
2021-04-09,08:00,0.86
2021-04-09,08:30,0.86
2021-04-09,09:00,0.86
2021-04-09,09:30,0.86
2021-04-09,10:00,0.86
2021-04-09,10:30,0.85
2021-04-09,11:00,0.85
2021-04-09,11:30,0.85
2021-04-09,12:00,0.85
2021-04-09,12:30,0.85
2021-04-09,13:00,0.85
2021-04-09,13:30,0.85
2021-04-09,14:00,0.85
2021-04-09,14:30,0.85
2021-04-09,15:00,0.85
2021-04-09,15:30,0.86
2021-04-09,16:00,0.86
2021-04-09,16:30,0.88
2021-04-09,17:00,0.94
2021-04-09,17:30,1.05
2021-04-09,18:00,1.06
2021-04-09,18:30,1.08
2021-04-09,19:00,1.13
2021-04-09,19:30,1.16
2021-04-09,20:00,1.19
2021-04-09,20:30,1.21
2021-04-09,21:00,1.23
2021-04-09,21:30,1.24
2021-04-09,22:00,1.24
2021-04-09,22:30,1.23
2021-04-09,23:00,1.22
2021-04-09,23:30,1.21
2021-04-10,01:00,1.17
2021-04-10,01:30,1.16
2021-04-10,02:00,1.15
2021-04-10,02:30,1.16
2021-04-10,03:00,1.16
2021-04-10,03:30,1.16
2021-04-10,04:00,1.15
2021-04-10,04:30,1.15
2021-04-10,05:00,1.14
2021-04-10,05:30,1.13
2021-04-10,06:00,1.12
2021-04-10,06:30,1.12
2021-04-10,07:00,1.12
2021-04-10,07:30,1.11
2021-04-10,08:00,1.1
2021-04-10,08:30,1.09
2021-04-10,09:00,1.09
2021-04-10,09:30,1.09
2021-04-10,10:00,1.11
2021-04-10,10:30,1.15
2021-04-10,11:00,1.16
2021-04-10,11:30,1.16
2021-04-10,12:00,1.15
2021-04-10,12:30,1.15
2021-04-10,13:00,1.14
2021-04-10,13:30,1.14
2021-04-10,14:00,1.14
2021-04-10,14:30,1.14
2021-04-10,15:00,1.14
2021-04-10,15:30,1.15
2021-04-10,16:00,1.14
2021-04-10,16:30,1.14
2021-04-10,17:00,1.14
2021-04-10,17:30,1.13
2021-04-10,18:00,1.13
2021-04-10,18:30,1.14
2021-04-10,19:00,1.15
2021-04-10,19:30,1.15
2021-04-10,20:00,1.16
2021-04-10,20:30,1.16
2021-04-10,21:00,1.16
2021-04-10,21:30,1.17
2021-04-10,22:00,1.18
2021-04-10,22:30,1.19
2021-04-10,23:00,1.19
2021-04-10,23:30,1.2
2021-04-11,01:00,1.25
2021-04-11,01:30,1.29
2021-04-11,02:00,1.32
2021-04-11,02:30,1.35
2021-04-11,03:00,1.38
2021-04-11,03:30,1.42
2021-04-11,04:00,1.44
2021-04-11,04:30,1.45
2021-04-11,05:00,1.45
2021-04-11,05:30,1.44
2021-04-11,06:00,1.43
2021-04-11,06:30,1.41
2021-04-11,07:00,1.4
2021-04-11,07:30,1.39
2021-04-11,08:00,1.39
2021-04-11,08:30,1.4
2021-04-11,09:00,1.4
2021-04-11,09:30,1.4
2021-04-11,10:00,1.4
2021-04-11,10:30,1.4
2021-04-11,11:00,1.39
2021-04-11,11:30,1.38
2021-04-11,12:00,1.37
2021-04-11,12:30,1.35
2021-04-11,13:00,1.34
2021-04-11,13:30,1.32
2021-04-11,14:00,1.3
2021-04-11,14:30,1.29
2021-04-11,15:00,1.28
2021-04-11,15:30,1.28
2021-04-11,16:00,1.27
2021-04-11,16:30,1.27
2021-04-11,17:00,1.27
2021-04-11,17:30,1.26
2021-04-11,18:00,1.25
2021-04-11,18:30,1.23
2021-04-11,19:00,1.22
2021-04-11,19:30,1.2
2021-04-11,20:00,1.2
2021-04-11,20:30,1.2
2021-04-11,21:00,1.21
2021-04-11,21:30,1.21
2021-04-11,22:00,1.21
2021-04-11,22:30,1.21
2021-04-11,23:00,1.21
2021-04-11,23:30,1.2
2021-04-12,01:00,1.16
2021-04-12,01:30,1.15
2021-04-12,02:00,1.15
2021-04-12,02:30,1.15
2021-04-12,03:00,1.14
2021-04-12,03:30,1.13
2021-04-12,04:00,1.12
2021-04-12,04:30,1.12
2021-04-12,05:00,1.12
2021-04-12,05:30,1.13
2021-04-12,06:00,1.14
2021-04-12,06:30,1.14
2021-04-12,07:00,1.14
2021-04-12,07:30,1.14
2021-04-12,08:00,1.13
2021-04-12,08:30,1.12
2021-04-12,09:00,1.11
2021-04-12,09:30,1.11
2021-04-12,10:00,1.11
2021-04-12,10:30,1.11
2021-04-12,11:00,1.1
2021-04-12,11:30,1.1
2021-04-12,12:00,1.09
2021-04-12,12:30,1.08
2021-04-12,13:00,1.08
2021-04-12,13:30,1.08
2021-04-12,14:00,1.09
2021-04-12,14:30,1.09
2021-04-12,15:00,1.08
2021-04-12,15:30,1.08
2021-04-12,16:00,1.07
2021-04-12,16:30,1.07
2021-04-12,17:00,1.07
2021-04-12,17:30,1.08
2021-04-12,18:00,1.09
2021-04-12,18:30,1.08
2021-04-12,19:00,1.08
2021-04-12,19:30,1.07
2021-04-12,20:00,1.07
2021-04-12,20:30,1.07
2021-04-12,21:00,1.07
2021-04-12,21:30,1.08
2021-04-12,22:00,1.09
2021-04-12,22:30,1.09
2021-04-12,23:00,1.09
2021-04-12,23:30,1.08
2021-04-13,01:00,1.06
2021-04-13,01:30,1.06
2021-04-13,02:00,1.05
2021-04-13,02:30,1.05
2021-04-13,03:00,1.04
2021-04-13,03:30,1.04
2021-04-13,04:00,1.04
2021-04-13,04:30,1.04
2021-04-13,05:00,1.04
2021-04-13,05:30,1.04
2021-04-13,06:00,1.04
2021-04-13,06:30,1.05
2021-04-13,07:00,1.07
2021-04-13,07:30,1.08
2021-04-13,08:00,1.09
2021-04-13,08:30,1.09
2021-04-13,09:00,1.09
2021-04-13,09:30,1.08
2021-04-13,10:00,1.08
2021-04-13,10:30,1.08
2021-04-13,11:00,1.08
2021-04-13,11:30,1.08
2021-04-13,12:00,1.08
2021-04-13,12:30,1.07
2021-04-13,13:00,1.07
2021-04-13,13:30,1.08
2021-04-13,14:00,1.09
2021-04-13,14:30,1.1
2021-04-13,15:00,1.11
2021-04-13,15:30,1.12
2021-04-13,16:00,1.14
2021-04-13,16:30,1.16
2021-04-13,17:00,1.17
2021-04-13,17:30,1.19
2021-04-13,18:00,1.21
2021-04-13,18:30,1.23
2021-04-13,19:00,1.24
2021-04-13,19:30,1.26
2021-04-13,20:00,1.27
2021-04-13,20:30,1.28
2021-04-13,21:00,1.29
2021-04-13,21:30,1.31
2021-04-13,22:00,1.32
2021-04-13,22:30,1.33
2021-04-13,23:00,1.33
2021-04-13,23:30,1.35
2021-04-14,01:00,1.4
2021-04-14,01:30,1.43
2021-04-14,02:00,1.45
2021-04-14,02:30,1.47
2021-04-14,03:00,1.49
2021-04-14,03:30,1.49
2021-04-14,04:00,1.49
2021-04-14,04:30,1.48
2021-04-14,05:00,1.46
2021-04-14,05:30,1.44
2021-04-14,06:00,1.43
2021-04-14,06:30,1.41
2021-04-14,07:00,1.4
2021-04-14,07:30,1.39
2021-04-14,08:00,1.38
2021-04-14,08:30,1.37
2021-04-14,09:00,1.37
2021-04-14,09:30,1.37
2021-04-14,10:00,1.38
2021-04-14,10:30,1.39
2021-04-14,11:00,1.39
2021-04-14,11:30,1.38
2021-04-14,12:00,1.37
2021-04-14,12:30,1.35
2021-04-14,13:00,1.34
2021-04-14,13:30,1.33
2021-04-14,14:00,1.32
2021-04-14,14:30,1.31
2021-04-14,15:00,1.3
2021-04-14,15:30,1.29
2021-04-14,16:00,1.28
2021-04-14,16:30,1.29
2021-04-14,17:00,1.29
2021-04-14,17:30,1.29
2021-04-14,18:00,1.28
2021-04-14,18:30,1.28
2021-04-14,19:00,1.27
2021-04-14,19:30,1.27
2021-04-14,20:00,1.26
2021-04-14,20:30,1.25
2021-04-14,21:00,1.26
2021-04-14,21:30,1.28
2021-04-14,22:00,1.28
2021-04-14,22:30,1.29
2021-04-14,23:00,1.33
2021-04-14,23:30,1.38
2021-04-15,01:00,1.44
2021-04-15,01:30,1.44
2021-04-15,02:00,1.43
2021-04-15,02:30,1.42
2021-04-15,03:00,1.4
2021-04-15,03:30,1.38
2021-04-15,04:00,1.37
2021-04-15,04:30,1.35
2021-04-15,05:00,1.34
2021-04-15,05:30,1.34
2021-04-15,06:00,1.34
2021-04-15,06:30,1.34
2021-04-15,07:00,1.33
2021-04-15,07:30,1.32
2021-04-15,08:00,1.31
2021-04-15,08:30,1.31
2021-04-15,09:00,1.31
2021-04-15,09:30,1.31
2021-04-15,10:00,1.31
2021-04-15,10:30,1.3
2021-04-15,11:00,1.29
2021-04-15,11:30,1.29
2021-04-15,12:00,1.29
2021-04-15,12:30,1.28
2021-04-15,13:00,1.28
2021-04-15,13:30,1.28
2021-04-15,14:00,1.27
2021-04-15,14:30,1.27
2021-04-15,15:00,1.26
2021-04-15,15:30,1.26
2021-04-15,16:00,1.26
2021-04-15,16:30,1.26
2021-04-15,17:00,1.25
2021-04-15,17:30,1.25
2021-04-15,18:00,1.24
2021-04-15,18:30,1.24
2021-04-15,19:00,1.24
2021-04-15,19:30,1.24
2021-04-15,20:00,1.24
2021-04-15,20:30,1.24
2021-04-15,21:00,1.23
2021-04-15,21:30,1.23
2021-04-15,22:00,1.22
2021-04-15,22:30,1.22
2021-04-15,23:00,1.22
2021-04-15,23:30,1.22
2021-04-16,01:00,1.21
2021-04-16,01:30,1.2
2021-04-16,02:00,1.21
2021-04-16,02:30,1.2
2021-04-16,03:00,1.2
2021-04-16,03:30,1.19
2021-04-16,04:00,1.18
2021-04-16,04:30,1.18
2021-04-16,05:00,1.18
2021-04-16,05:30,1.19
2021-04-16,06:00,1.19
2021-04-16,06:30,1.19
2021-04-16,07:00,1.19
2021-04-16,07:30,1.18
2021-04-16,08:00,1.19
2021-04-16,08:30,1.19
2021-04-16,09:00,1.19
2021-04-16,09:30,1.19
2021-04-16,10:00,1.19
2021-04-16,10:30,1.19
2021-04-16,11:00,1.19
2021-04-16,11:30,1.18
2021-04-16,12:00,1.19
2021-04-16,12:30,1.19
2021-04-16,13:00,1.19
2021-04-16,13:30,1.19
2021-04-16,14:00,1.18
2021-04-16,14:30,1.18
2021-04-16,15:00,1.18
2021-04-16,15:30,1.18
2021-04-16,16:00,1.18
2021-04-16,16:30,1.17
2021-04-16,17:00,1.16
2021-04-16,17:30,1.16
2021-04-16,18:00,1.15
2021-04-16,18:30,1.16
2021-04-16,19:00,1.16
2021-04-16,19:30,1.17
2021-04-16,20:00,1.17
2021-04-16,20:30,1.17
2021-04-16,21:00,1.16
2021-04-16,21:30,1.16
2021-04-16,22:00,1.15
2021-04-16,22:30,1.15
2021-04-16,23:00,1.15
2021-04-16,23:30,1.15
2021-04-17,01:00,1.15
2021-04-17,01:30,1.14
2021-04-17,02:00,1.14
2021-04-17,02:30,1.14
2021-04-17,03:00,1.13
2021-04-17,03:30,1.13
2021-04-17,04:00,1.12
2021-04-17,04:30,1.11
2021-04-17,05:00,1.11
2021-04-17,05:30,1.11
2021-04-17,06:00,1.12
2021-04-17,06:30,1.12
2021-04-17,07:00,1.13
2021-04-17,07:30,1.12
2021-04-17,08:00,1.12
2021-04-17,08:30,1.11
2021-04-17,09:00,1.11
2021-04-17,09:30,1.11
2021-04-17,10:00,1.11
2021-04-17,10:30,1.11
2021-04-17,11:00,1.11
2021-04-17,11:30,1.11
2021-04-17,12:00,1.11
2021-04-17,12:30,1.12
2021-04-17,13:00,1.12
2021-04-17,13:30,1.12
2021-04-17,14:00,1.12
2021-04-17,14:30,1.12
2021-04-17,15:00,1.11
2021-04-17,15:30,1.1
2021-04-17,16:00,1.09
2021-04-17,16:30,1.09
2021-04-17,17:00,1.09
2021-04-17,17:30,1.09
2021-04-17,18:00,1.1
2021-04-17,18:30,1.1
2021-04-17,19:00,1.1
2021-04-17,19:30,1.1
2021-04-17,20:00,1.1
2021-04-17,20:30,1.11
2021-04-17,21:00,1.11
2021-04-17,21:30,1.11
2021-04-17,22:00,1.11
2021-04-17,22:30,1.1
2021-04-17,23:00,1.1
2021-04-17,23:30,1.1
2021-04-18,01:00,1.09
2021-04-18,01:30,1.08
2021-04-18,02:00,1.07
2021-04-18,02:30,1.07
2021-04-18,03:00,1.06
2021-04-18,03:30,1.07
2021-04-18,04:00,1.07
2021-04-18,04:30,1.07
2021-04-18,05:00,1.08
2021-04-18,05:30,1.08
2021-04-18,06:00,1.08
2021-04-18,06:30,1.09
2021-04-18,07:00,1.09
2021-04-18,07:30,1.09
2021-04-18,08:00,1.09
2021-04-18,08:30,1.08
2021-04-18,09:00,1.07
2021-04-18,09:30,1.07
2021-04-18,10:00,1.06
2021-04-18,10:30,1.06
2021-04-18,11:00,1.06
2021-04-18,11:30,1.06
2021-04-18,12:00,1.06
2021-04-18,12:30,1.05
2021-04-18,13:00,1.05
2021-04-18,13:30,1.05
2021-04-18,14:00,1.05
2021-04-18,14:30,1.06
2021-04-18,15:00,1.07
2021-04-18,15:30,1.07
2021-04-18,16:00,1.07
2021-04-18,16:30,1.07
2021-04-18,17:00,1.07
2021-04-18,17:30,1.07
2021-04-18,18:00,1.07
2021-04-18,18:30,1.06
2021-04-18,19:00,1.06
2021-04-18,19:30,1.06
2021-04-18,20:00,1.06
2021-04-18,20:30,1.06
2021-04-18,21:00,1.07
2021-04-18,21:30,1.07
2021-04-18,22:00,1.07
2021-04-18,22:30,1.07
2021-04-18,23:00,1.06
2021-04-18,23:30,1.06
2021-04-19,01:00,1.05
2021-04-19,01:30,1.05
2021-04-19,02:00,1.04
2021-04-19,02:30,1.04
2021-04-19,03:00,1.03
2021-04-19,03:30,1.03
2021-04-19,04:00,1.03
2021-04-19,04:30,1.03
2021-04-19,05:00,1.04
2021-04-19,05:30,1.04
2021-04-19,06:00,1.05
2021-04-19,06:30,1.05
2021-04-19,07:00,1.05
2021-04-19,07:30,1.05
2021-04-19,08:00,1.05
2021-04-19,08:30,1.05
2021-04-19,09:00,1.05
2021-04-19,09:30,1.04
2021-04-19,10:00,1.03
2021-04-19,10:30,1.03
2021-04-19,11:00,1.03
2021-04-19,11:30,1.03
2021-04-19,12:00,1.03
2021-04-19,12:30,1.03
2021-04-19,13:00,1.02
2021-04-19,13:30,1.02
2021-04-19,14:00,1.02
2021-04-19,14:30,1.02
2021-04-19,15:00,1.02
2021-04-19,15:30,1.03
2021-04-19,16:00,1.04
2021-04-19,16:30,1.04
2021-04-19,17:00,1.04
2021-04-19,17:30,1.04
2021-04-19,18:00,1.04
2021-04-19,18:30,1.03
2021-04-19,19:00,1.03
2021-04-19,19:30,1.03
2021-04-19,20:00,1.03
2021-04-19,20:30,1.03
2021-04-19,21:00,1.04
2021-04-19,21:30,1.04
2021-04-19,22:00,1.04
2021-04-19,22:30,1.04
2021-04-19,23:00,1.04
2021-04-19,23:30,1.04
2021-04-20,01:00,1.02
2021-04-20,01:30,1.02
2021-04-20,02:00,1.02
2021-04-20,02:30,1.02
2021-04-20,03:00,1.01
2021-04-20,03:30,1.01
2021-04-20,04:00,1.0
2021-04-20,04:30,1.0
2021-04-20,05:00,1.01
2021-04-20,05:30,1.01
2021-04-20,06:00,1.01
2021-04-20,06:30,1.01
2021-04-20,07:00,1.01
2021-04-20,07:30,1.02
2021-04-20,08:00,1.03
2021-04-20,08:30,1.04
2021-04-20,09:00,1.04
2021-04-20,09:30,1.04
2021-04-20,10:00,1.03
2021-04-20,10:30,1.03
2021-04-20,11:00,1.02
2021-04-20,11:30,1.02
2021-04-20,12:00,1.01
2021-04-20,12:30,1.01
2021-04-20,13:00,1.01
2021-04-20,13:30,1.01
2021-04-20,14:00,1.0
2021-04-20,14:30,1.0
2021-04-20,15:00,1.01
2021-04-20,15:30,1.02
2021-04-20,16:00,1.03
2021-04-20,16:30,1.03
2021-04-20,17:00,1.03
2021-04-20,17:30,1.03
2021-04-20,18:00,1.03
2021-04-20,18:30,1.02
2021-04-20,19:00,1.02
2021-04-20,19:30,1.02
2021-04-20,20:00,1.03
2021-04-20,20:30,1.03
2021-04-20,21:00,1.03
2021-04-20,21:30,1.03
2021-04-20,22:00,1.03
2021-04-20,22:30,1.03
2021-04-20,23:00,1.03
2021-04-20,23:30,1.03
2021-04-21,01:00,1.01
2021-04-21,01:30,1.01
2021-04-21,02:00,1.01
2021-04-21,02:30,1.01
2021-04-21,03:00,1.01
2021-04-21,03:30,1.01
2021-04-21,04:00,1.02
2021-04-21,04:30,1.02
2021-04-21,05:00,1.03
2021-04-21,05:30,1.03
2021-04-21,06:00,1.04
2021-04-21,06:30,1.03
2021-04-21,07:00,1.03
2021-04-21,07:30,1.02
2021-04-21,08:00,1.01
2021-04-21,08:30,1.0
2021-04-21,09:00,1.0
2021-04-21,09:30,0.99
2021-04-21,10:00,0.98
2021-04-21,10:30,0.98
2021-04-21,11:00,0.98
2021-04-21,11:30,0.99
2021-04-21,12:00,1.01
2021-04-21,12:30,1.02
2021-04-21,13:00,1.02
2021-04-21,13:30,1.02
2021-04-21,14:00,1.02
2021-04-21,14:30,1.01
2021-04-21,15:00,1.01
2021-04-21,15:30,1.01
2021-04-21,16:00,1.03
2021-04-21,16:30,1.04
2021-04-21,17:00,1.05
2021-04-21,17:30,1.06
2021-04-21,18:00,1.07
2021-04-21,18:30,1.08
2021-04-21,19:00,1.09
2021-04-21,19:30,1.09
2021-04-21,20:00,1.1
2021-04-21,20:30,1.11
2021-04-21,21:00,1.13
2021-04-21,21:30,1.15
2021-04-21,22:00,1.16
2021-04-21,22:30,1.18
2021-04-21,23:00,1.19
2021-04-21,23:30,1.2
2021-04-22,01:00,1.21
2021-04-22,01:30,1.21
2021-04-22,02:00,1.22
2021-04-22,02:30,1.24
2021-04-22,03:00,1.27
2021-04-22,03:30,1.29
2021-04-22,04:00,1.31
2021-04-22,04:30,1.33
2021-04-22,05:00,1.36
2021-04-22,05:30,1.37
2021-04-22,06:00,1.37
2021-04-22,06:30,1.37
2021-04-22,07:00,1.37
2021-04-22,07:30,1.37
2021-04-22,08:00,1.37
2021-04-22,08:30,1.37
2021-04-22,09:00,1.38
2021-04-22,09:30,1.38
2021-04-22,10:00,1.38
2021-04-22,10:30,1.38
2021-04-22,11:00,1.39
2021-04-22,11:30,1.39
2021-04-22,12:00,1.38
2021-04-22,12:30,1.38
2021-04-22,13:00,1.36
2021-04-22,13:30,1.35
2021-04-22,14:00,1.35
2021-04-22,14:30,1.34
2021-04-22,15:00,1.35
2021-04-22,15:30,1.36
2021-04-22,16:00,1.36
2021-04-22,16:30,1.36
2021-04-22,17:00,1.36
2021-04-22,17:30,1.36
2021-04-22,18:00,1.35
2021-04-22,18:30,1.35
2021-04-22,19:00,1.34
2021-04-22,19:30,1.33
2021-04-22,20:00,1.33
2021-04-22,20:30,1.34
2021-04-22,21:00,1.34
2021-04-22,21:30,1.33
2021-04-22,22:00,1.33
2021-04-22,22:30,1.32
2021-04-22,23:00,1.31
2021-04-22,23:30,1.31
2021-04-23,01:00,1.28
2021-04-23,01:30,1.27
2021-04-23,02:00,1.27
2021-04-23,02:30,1.27
2021-04-23,03:00,1.27
2021-04-23,03:30,1.27
2021-04-23,04:00,1.26
2021-04-23,04:30,1.25
2021-04-23,05:00,1.24
2021-04-23,05:30,1.24
2021-04-23,06:00,1.24
2021-04-23,06:30,1.24
2021-04-23,07:00,1.25
2021-04-23,07:30,1.25
2021-04-23,08:00,1.24
2021-04-23,08:30,1.24
2021-04-23,09:00,1.23
2021-04-23,09:30,1.22
2021-04-23,10:00,1.21
2021-04-23,10:30,1.2
2021-04-23,11:00,1.19
2021-04-23,11:30,1.19
2021-04-23,12:00,1.19
2021-04-23,12:30,1.19
2021-04-23,13:00,1.2
2021-04-23,13:30,1.22
2021-04-23,14:00,1.22
2021-04-23,14:30,1.22
2021-04-23,15:00,1.21
2021-04-23,15:30,1.2
2021-04-23,16:00,1.19
2021-04-23,16:30,1.19
2021-04-23,17:00,1.18
2021-04-23,17:30,1.18
2021-04-23,18:00,1.19
2021-04-23,18:30,1.19
2021-04-23,19:00,1.2
2021-04-23,19:30,1.2
2021-04-23,20:00,1.2
2021-04-23,20:30,1.19
2021-04-23,21:00,1.19
2021-04-23,21:30,1.19
2021-04-23,22:00,1.19
2021-04-23,22:30,1.19
2021-04-23,23:00,1.18
2021-04-23,23:30,1.18
2021-04-24,01:00,1.17
2021-04-24,01:30,1.17
2021-04-24,02:00,1.18
2021-04-24,02:30,1.17
2021-04-24,03:00,1.17
2021-04-24,03:30,1.17
2021-04-24,04:00,1.16
2021-04-24,04:30,1.16
2021-04-24,05:00,1.16
2021-04-24,05:30,1.16
2021-04-24,06:00,1.16
2021-04-24,06:30,1.16
2021-04-24,07:00,1.16
2021-04-24,07:30,1.15
2021-04-24,08:00,1.15
2021-04-24,08:30,1.14
2021-04-24,09:00,1.14
2021-04-24,09:30,1.14
2021-04-24,10:00,1.14
2021-04-24,10:30,1.14
2021-04-24,11:00,1.14
2021-04-24,11:30,1.14
2021-04-24,12:00,1.14
2021-04-24,12:30,1.14
2021-04-24,13:00,1.15
2021-04-24,13:30,1.14
2021-04-24,14:00,1.14
2021-04-24,14:30,1.13
2021-04-24,15:00,1.13
2021-04-24,15:30,1.12
2021-04-24,16:00,1.11
2021-04-24,16:30,1.11
2021-04-24,17:00,1.11
2021-04-24,17:30,1.11
2021-04-24,18:00,1.13
2021-04-24,18:30,1.15
2021-04-24,19:00,1.16
2021-04-24,19:30,1.16
2021-04-24,22:30,1.14
2021-04-24,23:00,1.14
2021-04-24,23:30,1.14
2021-04-25,01:00,1.14
2021-04-25,01:30,1.13
2021-04-25,02:00,1.13
2021-04-25,02:30,1.13
2021-04-25,03:00,1.13
2021-04-25,03:30,1.13
2021-04-25,04:00,1.13
2021-04-25,04:30,1.14
2021-04-25,05:00,1.15
2021-04-25,05:30,1.16